| time (UTC) | temp F | wind direction | speed knots | gust knots | rain 1hr in | rain 24hr in | rain mn in | humidity % | barometer mb |
| 20260510113216 | 58 | 327 | 7.8 | 14.8 | 0.00 | 0.00 | 0.00 | 71 | 1015.0 |
| 20260510112720 | 58 | 36 | 7.0 | 13.0 | 0.00 | 0.00 | 0.00 | 71 | 1015.0 |
| 20260510112212 | 58 | 21 | 7.0 | 13.9 | 0.00 | 0.00 | 0.00 | 72 | 1015.1 |
| 20260510111717 | 58 | 355 | 7.0 | 13.9 | 0.00 | 0.00 | 0.00 | 72 | 1015.0 |
| 20260510111214 | 57 | 11 | 7.8 | 13.0 | 0.00 | 0.00 | 0.00 | 72 | 1015.2 |
| 20260510110711 | 58 | 355 | 6.1 | 13.0 | 0.00 | 0.00 | 0.00 | 71 | 1015.2 |
| 20260510110215 | 58 | 25 | 5.2 | 12.2 | 0.00 | 0.00 | 0.00 | 71 | 1015.3 |
| 20260510105707 | 58 | 5 | 5.2 | 13.9 | 0.00 | 0.00 | 0.00 | 72 | 1015.2 |
| 20260510104716 | 58 | 9 | 6.1 | 13.9 | 0.00 | 0.00 | 0.00 | 73 | 1015.3 |
| 20260510104208 | 57 | 46 | 6.1 | 13.0 | 0.00 | 0.00 | 0.00 | 72 | 1015.4 |
| 20260510103216 | 57 | 11 | 7.0 | 12.2 | 0.00 | 0.00 | 0.00 | 73 | 1015.5 |
| 20260510102711 | 57 | 0 | 6.1 | 13.0 | 0.00 | 0.00 | 0.00 | 73 | 1015.6 |
| 20260510102219 | 57 | 317 | 5.2 | 13.0 | 0.00 | 0.00 | 0.00 | 73 | 1015.7 |
| 20260510101714 | 57 | 328 | 7.0 | 13.0 | 0.00 | 0.00 | 0.00 | 73 | 1015.8 |
| 20260510101206 | 56 | 310 | 7.8 | 13.0 | 0.00 | 0.00 | 0.00 | 73 | 1015.8 |
| 20260510100719 | 56 | 36 | 7.0 | 13.9 | 0.00 | 0.00 | 0.00 | 73 | 1015.9 |
| 20260510100211 | 56 | 329 | 7.0 | 13.9 | 0.00 | 0.00 | 0.00 | 73 | 1016.0 |
| 20260510095206 | 57 | 305 | 5.2 | 16.5 | 0.00 | 0.00 | 0.00 | 73 | 1015.9 |
| 20260510094706 | 57 | 322 | 7.0 | 16.5 | 0.00 | 0.00 | 0.00 | 73 | 1015.9 |
| 20260510094212 | 56 | 355 | 7.8 | 14.8 | 0.00 | 0.00 | 0.00 | 74 | 1015.8 |
| 20260510093707 | 56 | 0 | 7.0 | 12.2 | 0.00 | 0.00 | 0.00 | 73 | 1016.0 |
| 20260510093209 | 57 | 39 | 6.1 | 16.5 | 0.00 | 0.00 | 0.00 | 74 | 1016.0 |
| 20260510092708 | 57 | 36 | 5.2 | 16.5 | 0.00 | 0.00 | 0.00 | 74 | 1016.0 |
| 20260510092212 | 56 | 5 | 7.0 | 16.5 | 0.00 | 0.00 | 0.00 | 76 | 1016.0 |
| 20260510091719 | 56 | 344 | 7.8 | 13.0 | 0.00 | 0.00 | 0.00 | 75 | 1016.1 |
| 20260510091213 | 56 | 5 | 6.1 | 13.9 | 0.00 | 0.00 | 0.00 | 75 | 1016.2 |
| 20260510090714 | 56 | 336 | 5.2 | 13.9 | 0.00 | 0.00 | 0.00 | 75 | 1016.2 |
| 20260510085706 | 57 | 5 | 5.2 | 13.0 | 0.00 | 0.00 | 0.00 | 75 | 1016.1 |
| 20260510085207 | 56 | 347 | 5.2 | 13.0 | 0.00 | 0.00 | 0.00 | 76 | 1016.1 |
| 20260510084705 | 56 | 348 | 6.1 | 12.2 | 0.00 | 0.00 | 0.00 | 77 | 1016.2 |
| 20260510084209 | 56 | 334 | 6.1 | 12.2 | 0.00 | 0.00 | 0.00 | 76 | 1016.2 |
| 20260510083714 | 56 | 18 | 6.1 | 12.2 | 0.00 | 0.00 | 0.00 | 76 | 1016.2 |
| 20260510083209 | 56 | 340 | 6.1 | 12.2 | 0.00 | 0.00 | 0.00 | 76 | 1016.2 |
| 20260510082712 | 56 | 19 | 5.2 | 12.2 | 0.00 | 0.00 | 0.00 | 77 | 1016.3 |
| 20260510082212 | 56 | 9 | 6.1 | 12.2 | 0.00 | 0.00 | 0.00 | 77 | 1016.4 |
| 20260510081210 | 56 | 351 | 6.1 | 16.5 | 0.00 | 0.00 | 0.00 | 77 | 1016.2 |
| 20260510080710 | 56 | 36 | 7.0 | 16.5 | 0.00 | 0.00 | 0.00 | 76 | 1016.2 |
| 20260510080209 | 56 | 349 | 6.1 | 13.0 | 0.00 | 0.00 | 0.00 | 77 | 1016.3 |
| 20260510075711 | 56 | 355 | 5.2 | 13.0 | 0.00 | 0.00 | 0.00 | 77 | 1016.3 |
| 20260510075205 | 56 | 325 | 6.1 | 12.2 | 0.00 | 0.00 | 0.00 | 77 | 1016.3 |
| 20260510074715 | 56 | 319 | 5.2 | 14.8 | 0.00 | 0.00 | 0.00 | 77 | 1016.3 |
| 20260510074217 | 56 | 46 | 4.3 | 14.8 | 0.00 | 0.00 | 0.00 | 76 | 1016.4 |
| 20260510073709 | 56 | 52 | 6.1 | 14.8 | 0.00 | 0.00 | 0.00 | 77 | 1016.4 |
| 20260510073219 | 56 | 329 | 6.1 | 13.0 | 0.00 | 0.00 | 0.00 | 77 | 1016.3 |
| 20260510072712 | 56 | 349 | 5.2 | 13.0 | 0.00 | 0.00 | 0.00 | 77 | 1016.3 |
| 20260510072217 | 56 | 318 | 6.1 | 13.9 | 0.00 | 0.00 | 0.00 | 77 | 1016.3 |
| 20260510071709 | 56 | 74 | 7.0 | 13.9 | 0.00 | 0.00 | 0.00 | 76 | 1016.2 |
| 20260510071215 | 56 | 32 | 6.1 | 11.3 | 0.00 | 0.00 | 0.00 | 75 | 1016.2 |
| 20260510070207 | 56 | 324 | 5.2 | 11.3 | 0.00 | 0.00 | 0.00 | 73 | 1016.3 |
| 20260510065210 | 56 | 336 | 4.3 | 12.2 | 0.00 | 0.00 | 0.00 | 74 | 1016.1 |
| 20260510064717 | 56 | 53 | 4.3 | 12.2 | 0.00 | 0.00 | 0.00 | 74 | 1016.1 |
| 20260510064213 | 56 | 325 | 5.2 | 10.4 | 0.00 | 0.00 | 0.00 | 74 | 1016.1 |
| 20260510063719 | 56 | 22 | 4.3 | 12.2 | 0.00 | 0.00 | 0.00 | 74 | 1016.2 |
| 20260510062714 | 56 | 5 | 3.5 | 12.2 | 0.00 | 0.00 | 0.00 | 75 | 1016.3 |
| 20260510062211 | 56 | 115 | 4.3 | 13.0 | 0.00 | 0.00 | 0.00 | 75 | 1016.2 |
| 20260510061717 | 56 | 37 | 4.3 | 13.0 | 0.00 | 0.00 | 0.00 | 73 | 1016.2 |
| 20260510060708 | 56 | 29 | 3.5 | 10.4 | 0.00 | 0.00 | 0.00 | 71 | 1016.2 |
| 20260510060213 | 55 | 57 | 3.5 | 10.4 | 0.00 | 0.00 | 0.00 | 71 | 1016.2 |
| 20260510055705 | 55 | 340 | 3.5 | 9.6 | 0.00 | 0.00 | 0.00 | 73 | 1016.1 |
| 20260510055215 | 55 | 53 | 3.5 | 8.7 | 0.00 | 0.00 | 0.00 | 74 | 1016.1 |
| 20260510054718 | 55 | 41 | 2.6 | 9.6 | 0.00 | 0.00 | 0.00 | 75 | 1016.1 |
| 20260510054218 | 55 | 307 | 3.5 | 9.6 | 0.00 | 0.00 | 0.00 | 76 | 1016.1 |
| 20260510053714 | 55 | 22 | 3.5 | 10.4 | 0.00 | 0.00 | 0.00 | 75 | 1016.2 |
| 20260510053215 | 54 | 46 | 3.5 | 10.4 | 0.00 | 0.00 | 0.00 | 75 | 1016.2 |
| 20260510052713 | 54 | 317 | 2.6 | 10.4 | 0.00 | 0.00 | 0.00 | 75 | 1016.2 |
| 20260510052215 | 54 | 30 | 1.7 | 9.6 | 0.00 | 0.00 | 0.00 | 75 | 1016.2 |
| 20260510051718 | 54 | 65 | 2.6 | 7.8 | 0.00 | 0.00 | 0.00 | 75 | 1016.3 |
| 20260510050712 | 54 | 355 | 2.6 | 7.8 | 0.00 | 0.00 | 0.00 | 75 | 1016.3 |
| 20260510050219 | 53 | 348 | 1.7 | 7.0 | 0.00 | 0.00 | 0.00 | 75 | 1016.4 |
| 20260510045715 | 53 | 15 | 1.7 | 7.8 | 0.00 | 0.00 | 0.00 | 76 | 1016.3 |
| 20260510045218 | 53 | 5 | 1.7 | 7.8 | 0.00 | 0.00 | 0.00 | 76 | 1016.4 |
| 20260510044718 | 53 | 9 | 1.7 | 7.0 | 0.00 | 0.00 | 0.00 | 77 | 1016.3 |
| 20260510044211 | 53 | 11 | 1.7 | 7.0 | 0.00 | 0.00 | 0.00 | 77 | 1016.3 |
| 20260510043214 | 53 | 5 | 1.7 | 9.6 | 0.00 | 0.00 | 0.00 | 78 | 1016.2 |
| 20260510042710 | 53 | 5 | 2.6 | 9.6 | 0.00 | 0.00 | 0.00 | 78 | 1016.1 |
| 20260510042215 | 53 | 26 | 2.6 | 9.6 | 0.00 | 0.00 | 0.00 | 78 | 1016.1 |
| 20260510041716 | 53 | 21 | 2.6 | 5.2 | 0.00 | 0.00 | 0.00 | 78 | 1016.0 |
| 20260510041232 | 53 | 331 | 1.7 | 7.8 | 0.00 | 0.00 | 0.00 | 78 | 1016.0 |
| 20260510040717 | 53 | 12 | 1.7 | 7.8 | 0.00 | 0.00 | 0.00 | 78 | 1016.0 |
| 20260510035718 | 53 | 28 | 2.6 | 9.6 | 0.00 | 0.00 | 0.00 | 78 | 1016.1 |
| 20260510035209 | 53 | 0 | 2.6 | 9.6 | 0.00 | 0.00 | 0.00 | 79 | 1016.1 |
| 20260510034717 | 53 | 50 | 2.6 | 9.6 | 0.00 | 0.00 | 0.00 | 79 | 1016.2 |
| 20260510033218 | 53 | 22 | 1.7 | 7.0 | 0.00 | 0.00 | 0.00 | 80 | 1016.3 |
| 20260510032719 | 53 | 304 | 2.6 | 7.0 | 0.00 | 0.00 | 0.00 | 80 | 1016.3 |
| 20260510032208 | 52 | 13 | 1.7 | 7.0 | 0.00 | 0.00 | 0.00 | 80 | 1016.3 |
| 20260510031711 | 52 | 11 | 1.7 | 7.0 | 0.00 | 0.00 | 0.00 | 80 | 1016.4 |
| 20260510030712 | 53 | 20 | 1.7 | 7.0 | 0.00 | 0.00 | 0.00 | 82 | 1016.3 |
| 20260510030220 | 53 | 11 | 2.6 | 8.7 | 0.00 | 0.00 | 0.00 | 83 | 1016.4 |
| 20260510025709 | 53 | 50 | 2.6 | 8.7 | 0.00 | 0.00 | 0.00 | 83 | 1016.4 |
| 20260510024706 | 53 | 25 | 1.7 | 8.7 | 0.00 | 0.00 | 0.00 | 84 | 1016.5 |
| 20260510024220 | 53 | 355 | 1.7 | 8.7 | 0.00 | 0.00 | 0.00 | 84 | 1016.5 |
| 20260510023705 | 53 | 68 | 1.7 | 8.7 | 0.00 | 0.00 | 0.00 | 84 | 1016.5 |
| 20260510023215 | 53 | 25 | 1.7 | 7.8 | 0.00 | 0.00 | 0.00 | 84 | 1016.5 |
| 20260510022709 | 53 | 5 | 1.7 | 7.0 | 0.00 | 0.00 | 0.00 | 84 | 1016.5 |
| 20260510021705 | 53 | 348 | 2.6 | 7.0 | 0.00 | 0.00 | 0.00 | 84 | 1016.6 |
| 20260510020708 | 53 | 22 | 2.6 | 7.0 | 0.00 | 0.00 | 0.00 | 84 | 1016.5 |
| 20260510020213 | 53 | 14 | 1.7 | 7.0 | 0.00 | 0.00 | 0.00 | 84 | 1016.5 |
| 20260510015716 | 53 | 5 | 2.6 | 7.8 | 0.00 | 0.00 | 0.00 | 84 | 1016.4 |
| 20260510015214 | 53 | 307 | 1.7 | 7.8 | 0.00 | 0.00 | 0.00 | 84 | 1016.4 |
| 20260510014719 | 53 | 344 | 2.6 | 7.8 | 0.00 | 0.00 | 0.00 | 84 | 1016.4 |
| 20260510014212 | 53 | 23 | 2.6 | 7.0 | 0.00 | 0.00 | 0.00 | 84 | 1016.5 |
| 20260510013716 | 53 | 335 | 1.7 | 7.0 | 0.00 | 0.00 | 0.00 | 84 | 1016.6 |
| 20260510013211 | 53 | 23 | 2.6 | 7.0 | 0.00 | 0.00 | 0.00 | 84 | 1016.7 |
| 20260510012715 | 53 | 38 | 2.6 | 7.0 | 0.00 | 0.00 | 0.00 | 84 | 1016.6 |
| 20260510012220 | 53 | 309 | 1.7 | 7.8 | 0.00 | 0.00 | 0.00 | 84 | 1016.5 |
| 20260510011714 | 53 | 42 | 1.7 | 7.8 | 0.00 | 0.00 | 0.00 | 83 | 1016.4 |
| 20260510011209 | 53 | 355 | 1.7 | 7.8 | 0.00 | 0.00 | 0.00 | 83 | 1016.5 |
| 20260510010717 | 53 | 9 | 1.7 | 6.1 | 0.00 | 0.00 | 0.00 | 82 | 1016.6 |
| 20260510010206 | 53 | 17 | 1.7 | 6.1 | 0.00 | 0.00 | 0.00 | 82 | 1016.7 |
| 20260510005710 | 53 | 5 | 1.7 | 6.1 | 0.00 | 0.00 | 0.00 | 81 | 1016.8 |
| 20260510004711 | 53 | 333 | 0.9 | 4.3 | 0.00 | 0.00 | 0.00 | 80 | 1016.8 |
| 20260510004209 | 53 | 350 | 0.9 | 2.6 | 0.00 | 0.00 | 0.00 | 80 | 1016.9 |
| 20260510003719 | 53 | 12 | 0.9 | 3.5 | 0.00 | 0.00 | 0.00 | 80 | 1016.9 |
| 20260510003207 | 53 | 24 | 0.9 | 3.5 | 0.00 | 0.00 | 0.00 | 79 | 1016.9 |
| 20260510002717 | 53 | 9 | 0.9 | 3.5 | 0.00 | 0.00 | 0.00 | 79 | 1016.9 |
| 20260510002218 | 54 | 9 | 0.0 | 3.5 | 0.00 | 0.00 | 0.00 | 78 | 1016.9 |
| 20260510001711 | 54 | 345 | 0.9 | 3.5 | 0.00 | 0.00 | 0.00 | 78 | 1016.9 |
| 20260510000219 | 54 | 24 | 1.7 | 7.0 | 0.00 | 0.00 | 0.00 | 77 | 1017.0 |
| 20260509235718 | 54 | 331 | 0.9 | 7.0 | 0.00 | 0.00 | 0.00 | 76 | 1017.0 |
| 20260509235220 | 54 | 30 | 0.9 | 7.0 | 0.00 | 0.00 | 0.00 | 76 | 1017.1 |
| 20260509234708 | 54 | 37 | 1.7 | 7.0 | 0.00 | 0.00 | 0.00 | 76 | 1017.1 |
| 20260509234207 | 54 | 51 | 0.9 | 7.0 | 0.00 | 0.00 | 0.00 | 75 | 1017.1 |
| 20260509233707 | 54 | 340 | 0.9 | 7.0 | 0.00 | 0.00 | 0.00 | 75 | 1017.1 |
| 20260509233217 | 54 | 17 | 1.7 | 7.0 | 0.00 | 0.00 | 0.00 | 75 | 1017.2 |
| 20260509232710 | 54 | 40 | 1.7 | 7.0 | 0.00 | 0.00 | 0.00 | 75 | 1017.0 |
| 20260509232216 | 54 | 337 | 1.7 | 6.1 | 0.00 | 0.00 | 0.00 | 75 | 1017.0 |
| 20260509231212 | 54 | 355 | 1.7 | 5.2 | 0.00 | 0.00 | 0.00 | 75 | 1017.1 |
| 20260509230710 | 54 | 12 | 1.7 | 5.2 | 0.00 | 0.00 | 0.00 | 75 | 1017.0 |
| 20260509230216 | 54 | 31 | 1.7 | 5.2 | 0.00 | 0.00 | 0.00 | 75 | 1017.0 |
| 20260509225711 | 54 | 47 | 0.9 | 7.8 | 0.00 | 0.00 | 0.00 | 75 | 1017.1 |
| 20260509225212 | 55 | 338 | 1.7 | 7.8 | 0.00 | 0.00 | 0.00 | 74 | 1017.1 |
| 20260509224717 | 55 | 22 | 1.7 | 7.8 | 0.00 | 0.00 | 0.00 | 74 | 1017.1 |
| 20260509224213 | 55 | 37 | 1.7 | 5.2 | 0.00 | 0.00 | 0.00 | 74 | 1017.2 |
| 20260509223712 | 55 | 24 | 0.9 | 4.3 | 0.00 | 0.00 | 0.00 | 74 | 1017.2 |
| 20260509223217 | 55 | 344 | 0.9 | 3.5 | 0.00 | 0.00 | 0.00 | 73 | 1017.2 |
| 20260509222716 | 55 | 5 | 0.9 | 4.3 | 0.00 | 0.00 | 0.00 | 73 | 1017.2 |
| 20260509222207 | 55 | 24 | 1.7 | 4.3 | 0.00 | 0.00 | 0.00 | 73 | 1017.2 |
| 20260509221217 | 56 | 350 | 0.9 | 7.8 | 0.00 | 0.00 | 0.00 | 72 | 1017.2 |
| 20260509220711 | 56 | 44 | 1.7 | 7.8 | 0.00 | 0.00 | 0.00 | 72 | 1017.2 |
| 20260509220218 | 56 | 0 | 2.6 | 8.7 | 0.00 | 0.00 | 0.00 | 73 | 1017.1 |
| 20260509215713 | 56 | 68 | 2.6 | 8.7 | 0.00 | 0.00 | 0.00 | 73 | 1017.1 |
| 20260509215206 | 56 | 65 | 2.6 | 8.7 | 0.00 | 0.00 | 0.00 | 73 | 1017.1 |
| 20260509214717 | 56 | 57 | 2.6 | 7.8 | 0.00 | 0.00 | 0.00 | 73 | 1017.0 |
| 20260509212714 | 56 | 53 | 2.6 | 7.0 | 0.00 | 0.00 | 0.00 | 74 | 1017.1 |
| 20260509211206 | 57 | 26 | 1.7 | 7.0 | 0.00 | 0.00 | 0.00 | 74 | 1017.2 |
| 20260509210216 | 57 | 347 | 1.7 | 7.0 | 0.00 | 0.00 | 0.00 | 74 | 1017.2 |
| 20260509205715 | 57 | 31 | 1.7 | 7.0 | 0.00 | 0.00 | 0.00 | 74 | 1017.2 |
| 20260509205211 | 57 | 313 | 1.7 | 7.0 | 0.00 | 0.00 | 0.00 | 74 | 1017.2 |
| 20260509204718 | 57 | 17 | 1.7 | 7.0 | 0.00 | 0.00 | 0.00 | 74 | 1017.1 |
| 20260509204206 | 57 | 5 | 1.7 | 7.8 | 0.00 | 0.00 | 0.00 | 74 | 1017.1 |
| 20260509203707 | 57 | 84 | 1.7 | 7.8 | 0.00 | 0.00 | 0.00 | 73 | 1017.0 |
| 20260509202719 | 57 | 12 | 1.7 | 7.0 | 0.00 | 0.00 | 0.00 | 73 | 1017.0 |
| 20260509201715 | 57 | 0 | 1.7 | 7.0 | 0.00 | 0.00 | 0.00 | 73 | 1017.0 |
| 20260509201217 | 57 | 28 | 1.7 | 7.0 | 0.00 | 0.00 | 0.00 | 73 | 1017.0 |
| 20260509200706 | 57 | 329 | 1.7 | 7.0 | 0.00 | 0.00 | 0.00 | 73 | 1017.0 |
| 20260509200218 | 57 | 14 | 1.7 | 6.1 | 0.00 | 0.00 | 0.00 | 73 | 1017.1 |
| 20260509195714 | 57 | 18 | 2.6 | 7.8 | 0.00 | 0.00 | 0.00 | 73 | 1017.2 |
| 20260509195206 | 57 | 19 | 2.6 | 7.8 | 0.00 | 0.00 | 0.00 | 72 | 1017.2 |
| 20260509194720 | 57 | 43 | 2.6 | 7.8 | 0.00 | 0.00 | 0.00 | 72 | 1017.1 |
| 20260509194216 | 57 | 329 | 2.6 | 7.8 | 0.00 | 0.00 | 0.00 | 72 | 1017.0 |
| 20260509193716 | 57 | 0 | 2.6 | 7.8 | 0.00 | 0.00 | 0.00 | 71 | 1017.0 |
| 20260509193219 | 58 | 340 | 2.6 | 7.8 | 0.00 | 0.00 | 0.00 | 71 | 1016.9 |
| 20260509192713 | 58 | 321 | 2.6 | 7.8 | 0.00 | 0.00 | 0.00 | 70 | 1017.0 |
| 20260509192207 | 58 | 323 | 3.5 | 7.8 | 0.00 | 0.00 | 0.00 | 70 | 1017.0 |
| 20260509191717 | 58 | 5 | 3.5 | 8.7 | 0.00 | 0.00 | 0.00 | 70 | 1017.0 |
| 20260509191212 | 58 | 331 | 3.5 | 8.7 | 0.00 | 0.00 | 0.00 | 70 | 1016.9 |
| 20260509190711 | 58 | 319 | 3.5 | 8.7 | 0.00 | 0.00 | 0.00 | 69 | 1016.7 |
| 20260509190234 | 58 | 306 | 2.6 | 9.6 | 0.00 | 0.00 | 0.00 | 68 | 1016.7 |
| 20260509185732 | 58 | 48 | 3.5 | 9.6 | 0.00 | 0.00 | 0.00 | 68 | 1016.8 |
| 20260509185206 | 58 | 346 | 3.5 | 8.7 | 0.00 | 0.00 | 0.00 | 68 | 1016.7 |
| 20260509184706 | 59 | 336 | 2.6 | 8.7 | 0.00 | 0.00 | 0.00 | 67 | 1016.7 |
| 20260509184210 | 59 | 315 | 3.5 | 8.7 | 0.00 | 0.00 | 0.00 | 67 | 1016.7 |
| 20260509183710 | 59 | 310 | 3.5 | 8.7 | 0.00 | 0.00 | 0.00 | 67 | 1016.7 |
| 20260509183218 | 59 | 29 | 3.5 | 8.7 | 0.00 | 0.00 | 0.00 | 66 | 1016.7 |
| 20260509182714 | 59 | 355 | 3.5 | 9.6 | 0.00 | 0.00 | 0.00 | 66 | 1016.7 |
| 20260509182209 | 59 | 73 | 4.3 | 9.6 | 0.00 | 0.00 | 0.00 | 66 | 1016.7 |
| 20260509181208 | 60 | 16 | 4.3 | 9.6 | 0.00 | 0.00 | 0.00 | 64 | 1016.6 |
| 20260509180709 | 60 | 40 | 4.3 | 10.4 | 0.00 | 0.00 | 0.00 | 62 | 1016.6 |
| 20260509180216 | 60 | 0 | 4.3 | 10.4 | 0.00 | 0.00 | 0.00 | 61 | 1016.4 |
| 20260509175710 | 60 | 332 | 5.2 | 10.4 | 0.00 | 0.00 | 0.00 | 61 | 1016.5 |
| 20260509175218 | 61 | 326 | 4.3 | 10.4 | 0.00 | 0.00 | 0.00 | 60 | 1016.5 |
| 20260509174707 | 61 | 342 | 4.3 | 11.3 | 0.00 | 0.00 | 0.00 | 59 | 1016.5 |
| 20260509174209 | 61 | 337 | 5.2 | 11.3 | 0.00 | 0.00 | 0.00 | 59 | 1016.5 |
| 20260509173215 | 61 | 338 | 4.3 | 11.3 | 0.00 | 0.00 | 0.00 | 57 | 1016.7 |
| 20260509172212 | 62 | 348 | 3.5 | 10.4 | 0.00 | 0.00 | 0.00 | 56 | 1016.7 |
| 20260509171709 | 62 | 350 | 4.3 | 10.4 | 0.00 | 0.00 | 0.00 | 56 | 1016.7 |
| 20260509171214 | 62 | 333 | 4.3 | 10.4 | 0.00 | 0.00 | 0.00 | 55 | 1016.8 |
| 20260509170212 | 62 | 0 | 4.3 | 11.3 | 0.00 | 0.00 | 0.00 | 54 | 1016.8 |
| 20260509165718 | 63 | 23 | 3.5 | 11.3 | 0.00 | 0.00 | 0.00 | 54 | 1016.8 |
| 20260509165208 | 63 | 32 | 3.5 | 9.6 | 0.00 | 0.00 | 0.00 | 51 | 1016.8 |
| 20260509164709 | 63 | 340 | 3.5 | 10.4 | 0.00 | 0.00 | 0.00 | 51 | 1016.8 |
| 20260509164213 | 63 | 339 | 4.3 | 10.4 | 0.00 | 0.00 | 0.00 | 49 | 1016.7 |
| 20260509163715 | 63 | 305 | 3.5 | 9.6 | 0.00 | 0.00 | 0.00 | 47 | 1016.7 |
| 20260509163210 | 63 | 324 | 3.5 | 9.6 | 0.00 | 0.00 | 0.00 | 48 | 1016.8 |
| 20260509162710 | 63 | 14 | 3.5 | 10.4 | 0.00 | 0.00 | 0.00 | 47 | 1016.7 |
| 20260509161708 | 63 | 355 | 5.2 | 11.3 | 0.00 | 0.00 | 0.00 | 46 | 1016.7 |
| 20260509161219 | 64 | 329 | 4.3 | 11.3 | 0.00 | 0.00 | 0.00 | 46 | 1016.6 |
| 20260509160716 | 64 | 56 | 4.3 | 11.3 | 0.00 | 0.00 | 0.00 | 42 | 1016.7 |
| 20260509160220 | 64 | 74 | 4.3 | 10.4 | 0.00 | 0.00 | 0.00 | 43 | 1016.6 |
| 20260509155707 | 64 | 336 | 4.3 | 10.4 | 0.00 | 0.00 | 0.00 | 46 | 1016.6 |
| 20260509155210 | 64 | 35 | 3.5 | 10.4 | 0.00 | 0.00 | 0.00 | 43 | 1016.7 |
| 20260509154716 | 64 | 346 | 4.3 | 13.0 | 0.00 | 0.00 | 0.00 | 45 | 1016.6 |
| 20260509154215 | 64 | 5 | 5.2 | 13.0 | 0.00 | 0.00 | 0.00 | 44 | 1016.6 |
| 20260509153207 | 65 | 295 | 3.5 | 11.3 | 0.00 | 0.00 | 0.00 | 45 | 1016.6 |
| 20260509152714 | 64 | 325 | 4.3 | 11.3 | 0.00 | 0.00 | 0.00 | 43 | 1016.6 |
| 20260509152217 | 64 | 339 | 5.2 | 11.3 | 0.00 | 0.00 | 0.00 | 47 | 1016.6 |
| 20260509151715 | 64 | 5 | 5.2 | 11.3 | 0.00 | 0.00 | 0.00 | 47 | 1016.6 |
| 20260509151218 | 64 | 329 | 4.3 | 11.3 | 0.00 | 0.00 | 0.00 | 46 | 1016.6 |
| 20260509150718 | 64 | 344 | 5.2 | 11.3 | 0.00 | 0.00 | 0.00 | 46 | 1016.6 |
| 20260509150222 | 64 | 35 | 4.3 | 10.4 | 0.00 | 0.00 | 0.00 | 49 | 1016.6 |
| 20260509145717 | 65 | 341 | 4.3 | 10.4 | 0.00 | 0.00 | 0.00 | 50 | 1016.7 |
| 20260509145213 | 64 | 322 | 5.2 | 10.4 | 0.00 | 0.00 | 0.00 | 51 | 1016.7 |
| 20260509144707 | 64 | 344 | 5.2 | 13.0 | 0.00 | 0.00 | 0.00 | 51 | 1016.8 |
| 20260509144212 | 64 | 346 | 5.2 | 13.0 | 0.00 | 0.00 | 0.00 | 52 | 1016.8 |
| 20260509143706 | 64 | 313 | 6.1 | 13.0 | 0.00 | 0.00 | 0.00 | 53 | 1016.7 |
| 20260509143219 | 64 | 11 | 6.1 | 12.2 | 0.00 | 0.00 | 0.00 | 52 | 1016.7 |
| 20260509141708 | 65 | 350 | 5.2 | 11.3 | 0.00 | 0.00 | 0.00 | 51 | 1016.7 |
| 20260509140215 | 64 | 336 | 5.2 | 11.3 | 0.00 | 0.00 | 0.00 | 51 | 1017.0 |
| 20260509135706 | 64 | 334 | 5.2 | 10.4 | 0.00 | 0.00 | 0.00 | 51 | 1017.1 |
| 20260509135221 | 65 | 319 | 5.2 | 10.4 | 0.00 | 0.00 | 0.00 | 51 | 1017.2 |
| 20260509133715 | 65 | 313 | 4.3 | 9.6 | 0.00 | 0.00 | 0.00 | 52 | 1017.2 |
| 20260509133218 | 65 | 341 | 4.3 | 9.6 | 0.00 | 0.00 | 0.00 | 51 | 1017.3 |
| 20260509132208 | 65 | 348 | 4.3 | 10.4 | 0.00 | 0.00 | 0.00 | 52 | 1017.4 |
| 20260509131711 | 65 | 317 | 4.3 | 10.4 | 0.00 | 0.00 | 0.00 | 52 | 1017.4 |
| 20260509130717 | 65 | 345 | 4.3 | 12.2 | 0.00 | 0.00 | 0.00 | 53 | 1017.6 |
| 20260509130207 | 65 | 323 | 5.2 | 12.2 | 0.00 | 0.00 | 0.00 | 52 | 1017.6 |
| 20260509125710 | 65 | 17 | 5.2 | 11.3 | 0.00 | 0.00 | 0.00 | 52 | 1017.5 |
| 20260509125210 | 66 | 347 | 5.2 | 11.3 | 0.00 | 0.00 | 0.00 | 52 | 1017.6 |
| 20260509124714 | 66 | 318 | 4.3 | 9.6 | 0.00 | 0.00 | 0.00 | 51 | 1017.6 |
| 20260509123713 | 66 | 346 | 3.5 | 12.2 | 0.00 | 0.00 | 0.00 | 53 | 1017.7 |
| 20260509122718 | 66 | 288 | 4.3 | 9.6 | 0.00 | 0.00 | 0.00 | 51 | 1017.7 |
| 20260509121711 | 66 | 0 | 3.5 | 8.7 | 0.00 | 0.00 | 0.00 | 51 | 1017.8 |
| 20260509121220 | 67 | 337 | 3.5 | 7.8 | 0.00 | 0.00 | 0.00 | 49 | 1017.9 |
| 20260509120709 | 67 | 309 | 3.5 | 7.8 | 0.00 | 0.00 | 0.00 | 48 | 1017.9 |
| 20260509120212 | 67 | 122 | 2.6 | 7.8 | 0.00 | 0.00 | 0.00 | 50 | 1017.9 |
| 20260509115716 | 67 | 28 | 1.7 | 7.0 | 0.00 | 0.00 | 0.00 | 50 | 1018.0 |
| 20260509115213 | 67 | 57 | 0.9 | 7.0 | 0.00 | 0.00 | 0.00 | 49 | 1018.0 |